Rochester, NY

7:26 PM EDT on September 22, 2019 (GMT -0400)
Greater Rochester International

Weather History for KROC - July, 2019

Change the Weather History Date:

Sunday, July 14, 2019

  Actual Average Record
Temperature  
Mean Temperature 72 °F 71 °F  
Max Temperature 80 °F 81 °F 97 °F (1952)
Min Temperature 63 °F 61 °F 48 °F (1926)
Degree Days  
Heating Degree Days 0 0  
Month to date heating degree days 0 6  
Since 1 June heating degree days 48 74  
Since 1 July heating degree days 0 6  
Cooling Degree Days 7 6  
Month to date cooling degree days 116 84  
Year to date cooling degree days 209 220  
Since 1 June cooling degree days 199 190  
Growing Degree Days 22 (Base 50)    
Moisture  
Dew Point 58 °F    
Average Humidity 64    
Maximum Humidity 84    
Minimum Humidity 43    
Precipitation  
Precipitation 0.00 in 0.10 in 2.03 in (1945)
Month to date precipitation 1.98 1.47  
Year to date precipitation 18.45 17.27  
Snow  
Snow 0.00 in 0.00 in 0.00 in ()
Month to date snowfall 0.0 0.0  
Since 1 June snowfall 0.0 0.0  
Since 1 July snowfall 0.0 0.0  
Snow Depth 0.00 in    
Sea Level Pressure  
Sea Level Pressure 30.03 in    
Wind  
Wind Speed 9 mph (WNW)    
Max Wind Speed 18 mph    
Max Gust Speed 24 mph    
Visibility 10 miles    
Events      
T = Trace of Precipitation, MM = Missing Value Source: NWS Daily Summary

Daily Weather History Graph

Daily Weather History Graph

Search for Another Location

Airport or City:

Astronomy

Jul. 14, 2019 Rise Set
Actual Time 5:43 AM EDT 8:48 PM EDT
Civil Twilight 5:09 AM EDT 9:23 PM EDT
Nautical Twilight 4:25 AM EDT 10:06 PM EDT
Astronomical Twilight 3:32 AM EDT 10:59 PM EDT
Moon 7:09 PM EDT (7/14) 3:43 AM EDT (7/14)
Length of Visible Light 16h 13m
Length of Day
15h 05m
Waxing Gibbous, 95% of the Moon is Illuminated
Jul 14
Waxing Gibbous
Jul 16
Full
Jul 24
Last Quarter
Jul 31
New
Aug 7
First Quarter

Hourly Weather History & Observations

Time (EDT) Temp. Heat Index Dew Point Humidity Pressure Visibility Wind Dir Wind Speed Gust Speed Precip Events Conditions
12:54 AM 73.9 °F - 64.9 °F 73% 29.91 in 10.0 mi WNW 8.1 mph - N/A   Mostly Cloudy
1:54 AM 73.0 °F - 66.0 °F 79% 29.93 in 10.0 mi WNW 6.9 mph - N/A   Mostly Cloudy
2:54 AM 71.1 °F - 66.0 °F 84% 29.95 in 10.0 mi West 5.8 mph - N/A   Mostly Cloudy
3:54 AM 70.0 °F - 62.1 °F 76% 29.95 in 10.0 mi West 6.9 mph - N/A   Mostly Cloudy
4:54 AM 69.1 °F - 60.1 °F 73% 29.96 in 10.0 mi WNW 10.4 mph - N/A   Scattered Clouds
5:54 AM 66.0 °F - 55.0 °F 68% 29.98 in 10.0 mi WNW 9.2 mph - N/A   Partly Cloudy
6:54 AM 66.9 °F - 54.0 °F 63% 29.99 in 10.0 mi WNW 9.2 mph - N/A   Partly Cloudy
7:54 AM 68.0 °F - 55.0 °F 63% 30.01 in 10.0 mi WNW 10.4 mph - N/A   Scattered Clouds
8:54 AM 71.1 °F - 57.0 °F 61% 30.03 in 10.0 mi NNW 9.2 mph - N/A   Scattered Clouds
9:54 AM 73.9 °F - 60.1 °F 62% 30.05 in 10.0 mi NNW 11.5 mph - N/A   Partly Cloudy
10:54 AM 77.0 °F - 59.0 °F 54% 30.06 in 10.0 mi NW 9.2 mph - N/A   Partly Cloudy
11:54 AM 78.1 °F - 57.9 °F 50% 30.06 in 10.0 mi NW 10.4 mph - N/A   Partly Cloudy
12:54 PM 79.0 °F - 55.9 °F 45% 30.04 in 10.0 mi West 12.7 mph 21.9 mph N/A   Partly Cloudy
1:54 PM 79.0 °F - 57.0 °F 47% 30.05 in 10.0 mi WNW 17.3 mph 21.9 mph N/A   Scattered Clouds
2:54 PM 80.1 °F 80.4 °F 57.0 °F 45% 30.06 in 10.0 mi NW 11.5 mph 17.3 mph N/A   Scattered Clouds
3:54 PM 79.0 °F - 57.0 °F 47% 30.06 in 10.0 mi NNW 10.4 mph - N/A   Partly Cloudy
4:54 PM 79.0 °F - 55.9 °F 45% 30.06 in 10.0 mi North 13.8 mph - N/A   Partly Cloudy
5:54 PM 78.1 °F - 55.0 °F 45% 30.06 in 10.0 mi WNW 9.2 mph - N/A   Scattered Clouds
6:54 PM 77.0 °F - 54.0 °F 45% 30.06 in 10.0 mi NNW 9.2 mph - N/A   Scattered Clouds
7:54 PM 75.9 °F - 55.0 °F 48% 30.06 in 10.0 mi NW 6.9 mph - N/A   Mostly Cloudy
8:54 PM 73.0 °F - 55.9 °F 55% 30.07 in 10.0 mi WNW 4.6 mph - N/A   Mostly Cloudy
9:54 PM 69.1 °F - 57.0 °F 65% 30.09 in 10.0 mi West 3.5 mph - N/A   Mostly Cloudy
10:54 PM 64.9 °F - 57.9 °F 78% 30.09 in 10.0 mi Calm Calm - N/A   Mostly Cloudy
11:54 PM 64.9 °F - 57.0 °F 75% 30.10 in 10.0 mi West 4.6 mph - N/A   Partly Cloudy